{"data":{"norad_id":62568,"intl_designator":"2025-006Q","name":"STARLINK-32760","alt_names":[],"object_type":"PAYLOAD","status":"ACTIVE","operator":null,"country":"US","launch_date":"2025-01-10","launch_site_code":"AFETR","launch_vehicle":null,"mission":null,"orbit_class":"UNKNOWN","rcs_meters":null,"size_class":null,"mass_kg":null,"dimensions":null,"purposes":["comms"],"wikipedia_slug":null,"has_3d_model":false,"image_url":null,"decayed_at":null,"tle_current":{"epoch":"2026-09-21T08:15:22.908096Z","epoch_age_seconds":98430,"freshness":"FRESH","line1":"1 62568U 25006Q   26264.34401514  .00013504  00000+0  49927-3 0  9998","line2":"2 62568  43.0027 267.7693 0001479 272.6616  87.4066 15.27585032 94783","mean_motion":15.27585032,"eccentricity":0.0001479,"inclination_deg":43.0027,"raan_deg":267.7693,"arg_perigee_deg":272.6616,"mean_anomaly_deg":87.4066,"bstar":0.00049927,"rev_number":9478,"period_min":94.266438190656,"perigee_km":482.01926126765,"apogee_km":484.04879565787,"semimajor_km":6861.1710284628,"source":"CELESTRAK","updated_at":"2026-09-22T09:00:49.628908Z"}}}